SCP
0 0 0 0 0 0 0 0 0 0 0 0 0 0 0 0 0 0 0 0 0 0 0 0 0 0 0 0 0 1 1 1 1 1 1 1 1 1 1 0 0 0 0
0 0 0 0 0 0 0 0 0 0 0 0 0 0 0 0 0 0 0 0 0 0 0 0 0 0 0 0 0 0 0 1 1 1 1 1 1 1 1 0 0 0 0
0 0 0 0 0 0 0 0 0 0 0 0 0 0 0 0 0 0 0 0 0 0 0 0 0 0 0 0 0 0 0 0 1 1 1 1 1 1 1 0 0 0 0
0 0 0 0 0 0 0 0 0 0 0 0 0 0 0 0 0 0 0 0 0 0 0 0 0 0 0 0 0 0 0 0 0 0 1 1 1 1 1 0 0 0 0
0 0 0 0 0 0 0 0 0 0 0 0 0 0 0 0 0 0 0 0 0 0 0 0 0 0 0 0 0 0 0 0 0 0 0 0 0 0 0 0 0 0 0
0 0 0 0 0 0 0 0 0 0 0 0 0 0 0 0 0 0 0 0 0 0 0 0 0 0 0 0 0 0 0 0 0 0 0 0 0 0 0 0 0 0 0
0 0 0 0 0 0 0 0 0 0 0 0 0 0 0 0 0 0 0 0 0 0 0 0 0 0 0 0 0 0 0 0 0 0 0 0 0 0 0 0 0 0 0
0 0 0 0 0 0 0 0 0 0 0 0 0 0 0 0 0 0 0 0 0 0 0 0 0 0 0 0 0 0 0 0 0 0 0 0 0 0 0 0 0 0 0
0 0 0 0 0 0 0 0 0 0 0 0 0 0 0 0 0 0 0 0 0 0 0 0 0 0 0 0 0 0 0 0 0 0 0 0 0 0 0 0 0 0 0
0 0 0 0 0 0 0 0 0 0 0 0 0 0 0 0 0 0 0 0 0 0 0 0 0 0 0 0 0 0 0 0 0 0 0 0 0 0 0 0 0 0 0
0 0 0 0 0 0 0 0 0 0 0 0 0 0 0 0 0 0 0 0 0 0 0 0 0 0 0 0 0 0 0 0 0 0 0 0 0 0 0 0 0 0 0
0 0 0 0 0 0 0 0 0 0 0 0 0 0 0 0 0 0 0 0 0 0 0 0 0 0 0 0 0 0 0 0 0 0 0 0 0 0 0 0 0 0 0
0 0 0 0 0 0 0 0 0 0 0 0 0 0 0 0 0 0 0 0 0 0 0 0 0 0 0 0 0 0 0 0 0 0 0 0 0 0 0 0 0 0 0
0 0 0 0 0 0 0 0 0 0 0 0 0 0 0 0 0 0 0 0 0 0 0 0 0 0 0 0 0 0 0 0 0 0 0 0 0 0 0 0 0 0 0
0 0 0 0 0 0 0 0 0 0 0 0 0 0 0 0 0 0 0 0 0 0 0 0 0 0 0 0 0 0 0 0 0 0 0 0 0 0 0 0 0 0 0
0 0 0 0 0 0 0 0 0 0 0 0 0 0 0 0 0 0 0 0 0 0 0 0 0 0 0 0 0 0 0 0 0 0 0 0 0 0 0 0 0 0 0
0 0 0 0 0 0 0 0 0 0 0 0 0 0 0 0 0 0 0 0 0 0 0 0 0 0 0 0 0 0 0 0 0 0 0 0 0 0 0 0 0 0 0
0 0 0 0 0 0 0 0 0 0 0 0 0 0 0 0 0 0 0 0 0 0 0 0 0 0 0 0 0 0 0 0 0 0 0 0 0 0 0 0 0 0 0
0 0 0 0 0 0 0 0 0 0 0 0 0 0 0 0 0 0 0 0 0 0 0 0 0 0 0 0 0 0 0 0 0 0 0 0 0 0 0 0 0 0 0
0 0 0 0 0 0 0 0 0 0 0 0 0 0 0 0 0 0 0 0 0 0 0 0 0 0 0 0 0 0 0 0 0 0 0 0 0 0 0 0 0 0 0
0 0 0 0 0 0 0 0 0 0 0 0 0 0 0 0 0 0 0 0 0 0 0 0 0 0 0 0 0 0 0 0 0 0 0 0 0 0 0 0 0 0 0
0 0 0 0 0 0 0 0 0 0 0 0 0 0 0 0 0 0 0 0 0 0 0 0 0 0 0 0 0 0 0 0 0 0 0 0 0 0 0 0 0 0 0
0 0 0 0 0 0 0 0 0 0 0 0 0 0 0 0 0 0 0 0 0 0 0 0 0 0 0 0 0 0 0 0 0 0 0 0 0 0 0 0 0 0 0
0 0 0 0 0 0 0 0 0 0 0 0 0 0 0 0 0 0 0 0 0 0 0 0 0 0 0 0 0 0 0 0 0 0 0 0 0 0 0 0 0 0 0
0 0 0 0 0 0 0 0 0 0 0 0 0 0 0 0 0 0 0 0 0 0 0 0 0 0 0 0 0 0 0 0 0 0 0 0 0 0 0 0 0 0 0
0 0 0 0 0 0 0 0 0 0 0 0 0 0 0 0 0 0 0 0 0 0 0 0 0 0 0 0 0 0 0 0 0 0 0 0 0 0 0 0 0 0 0
Wind_Speed
7 7 7 7 7 7 7 7 7 7 7 7 7 7 7 7 7 6 6 5 5 4 4 4 4 3 2 2 1 2 2 2 3 2 2 4 5 6 6 6 7 6 6
8 7 7 7 8 8 9 8 8 8 8 8 8 8 9 9 8 8 8 7 7 6 6 5 5 4 4 3 2 3 3 2 2 3 2 3 4 6 7 6 6 6 6
9 9 8 8 8 9 9 9 8 8 8 8 8 8 8 8 8 8 8 8 8 7 7 6 6 6 5 4 4 3 3 3 2 3 3 2 3 5 6 5 6 6 7
9 10 9 9 9 9 10 9 9 9 9 9 8 8 8 8 9 9 8 9 9 8 8 7 7 6 6 6 5 5 4 4 3 3 3 3 3 5 6 6 5 5 5
10 10 9 10 10 10 10 10 10 9 11 9 9 9 9 9 10 10 9 10 10 10 9 8 8 9 8 7 6 5 5 4 4 4 3 3 4 5 6 5 6 5 5
11 11 11 10 10 10 10 10 10 10 10 9 9 10 10 11 11 9 7 7 7 9 9 8 8 9 10 11 9 7 6 6 5 4 4 5 5 5 5 6 6 6 4
11 12 11 11 11 11 13 12 11 10 10 10 10 10 10 10 12 10 10 7 7 7 8 8 9 10 10 8 10 10 8 8 7 4 4 4 4 4 5 7 7 7 5
12 12 11 11 12 12 11 11 11 10 9 9 10 10 9 11 12 11 10 8 8 8 7 8 8 7 8 8 8 9 8 8 9 7 5 5 4 3 4 5 6 5 5
13 12 13 13 13 13 13 12 11 10 10 9 10 10 10 9 10 10 10 6 7 8 8 8 8 8 9 10 8 7 7 7 10 11 9 7 7 6 5 4 5 7 5
14 14 13 13 13 14 13 12 10 9 9 10 10 9 9 9 9 11 11 7 7 8 7 8 10 9 11 11 8 7 7 6 6 7 8 7 7 8 10 7 7 7 6
14 14 13 13 13 13 11 10 10 9 9 9 10 9 8 9 9 12 13 8 7 7 7 7 7 11 13 13 10 7 6 5 5 5 6 6 6 6 7 8 7 7 7
14 14 14 13 13 12 11 10 9 9 9 8 8 8 6 6 7 9 13 13 8 6 6 5 5 11 14 14 10 7 8 6 4 4 5 6 6 7 6 8 8 7 5
14 14 14 14 11 11 10 10 8 7 6 6 5 6 5 4 4 8 11 12 11 6 3 2 4 9 11 10 11 10 8 5 5 5 6 6 6 6 6 6 7 6 5
14 14 13 12 11 10 7 7 6 6 5 5 5 4 4 2 2 3 5 6 8 7 5 4 5 8 8 7 8 7 6 6 6 6 5 5 5 5 6 6 6 6 5
14 13 12 11 10 9 8 6 6 4 3 5 5 4 3 2 1 1 2 4 5 5 5 4 4 5 6 6 6 7 8 8 7 6 5 5 5 5 6 6 7 7 6
12 12 10 9 8 8 7 6 4 4 3 3 4 4 2 1 0 0 2 2 3 3 3 4 5 6 7 7 7 7 8 8 8 7 6 5 5 6 6 6 7 7 7
12 11 9 9 8 8 7 6 5 3 3 2 2 2 2 1 0 1 2 2 3 3 3 5 5 5 6 6 6 6 7 8 7 7 7 6 6 6 6 7 7 7 7
13 11 10 8 8 7 7 6 5 4 2 1 2 2 2 1 1 1 2 3 3 4 5 5 5 5 5 6 6 5 6 6 6 6 6 6 7 7 7 7 8 9 8
11 9 9 9 8 7 6 6 5 5 3 1 1 2 2 2 2 2 3 4 4 5 6 5 5 5 5 5 5 4 5 5 5 5 6 6 7 7 7 7 7 11 9
9 12 12 9 7 7 6 6 5 4 3 2 0 1 2 3 3 4 5 5 4 4 4 4 4 5 5 5 4 4 4 5 6 6 6 6 6 7 8 9 8 9 9
9 10 12 8 6 6 6 6 5 4 3 3 2 2 2 3 2 3 3 4 3 3 3 4 4 4 4 4 4 5 5 5 5 5 6 6 7 7 7 8 8 9 9
9 8 7 7 6 6 6 5 4 4 3 3 2 1 1 3 3 2 2 2 3 3 3 3 3 3 2 3 3 3 4 4 5 5 6 6 6 7 8 8 8 9 10
9 9 8 7 6 5 5 4 4 4 3 2 2 1 1 2 2 2 2 2 1 1 1 1 2 2 2 1 1 2 2 3 4 5 6 7 7 8 8 9 11 11 11
9 8 8 7 6 6 5 4 4 4 3 3 2 2 2 2 2 2 1 1 1 0 1 1 1 2 2 1 1 0 0 2 3 4 8 8 9 9 9 9 10 11 10
7 7 7 7 6 6 5 5 5 5 4 3 2 2 2 2 2 2 1 1 0 1 1 1 1 1 3 4 3 3 5 5 4 4 6 7 10 10 10 11 10 10 9
7 7 7 6 6 5 5 5 5 5 4 3 3 2 2 1 1 1 0 1 1 2 2 2 3 4 5 5 6 7 6 6 5 5 5 7 9 10 10 9 11 10 11
Wind_Direction
317 309 305 301 297 293 285 278 277 274 271 269 266 261 253 241 230 225 230 230 232 232 233 227 227 235 244 254 261 260 264 270 242 233 158 135 131 133 133 130 139 133 114
318 315 311 310 307 303 301 298 296 290 281 274 265 260 256 252 235 225 227 228 224 223 223 223 224 222 222 231 232 236 240 257 246 220 182 149 150 149 146 147 145 124 115
319 315 313 312 310 305 301 298 295 291 287 282 276 271 263 258 248 233 226 223 223 222 219 218 217 210 213 214 220 227 225 228 223 212 205 175 166 159 150 145 121 118 119
318 315 310 308 305 302 300 296 292 288 286 281 276 272 268 264 257 244 232 226 222 219 214 214 218 214 212 208 214 214 214 215 211 212 200 187 182 168 158 147 139 140 135
315 311 309 307 304 302 300 297 294 290 288 286 282 276 269 266 260 252 239 234 223 218 213 211 216 215 216 213 216 203 201 204 203 206 204 195 189 178 175 165 158 143 131
316 311 307 304 303 300 297 293 290 288 288 285 281 278 274 269 270 275 260 251 232 218 213 210 219 218 212 207 206 193 189 202 206 206 206 202 202 191 179 167 157 154 157
312 309 310 310 308 306 305 303 298 293 288 283 278 274 268 266 269 269 261 256 253 232 215 205 217 218 203 205 206 204 205 213 206 207 217 213 206 196 182 177 173 174 162
314 315 316 315 312 308 304 300 296 291 287 281 277 272 265 260 254 249 249 244 250 241 222 209 211 223 209 202 205 205 208 209 207 210 221 226 226 210 189 188 177 163 134
321 321 319 315 311 308 305 301 298 292 285 279 276 269 263 259 246 239 233 238 239 241 231 220 212 215 207 197 202 207 211 212 214 214 210 217 222 215 188 173 168 161 155
323 319 317 313 309 306 302 299 294 289 284 282 277 269 262 258 241 225 219 232 232 231 226 224 220 213 201 196 202 208 211 214 218 207 205 208 212 213 198 191 180 172 159
321 318 315 311 307 302 300 298 296 292 287 283 281 272 261 252 239 221 213 223 227 224 223 219 215 201 194 194 201 210 212 210 211 211 203 203 204 205 198 195 190 181 175
321 317 315 312 310 310 307 302 299 296 291 286 282 277 264 251 235 220 211 217 228 234 230 223 207 192 189 190 198 203 193 194 216 213 211 206 204 202 199 192 191 188 185
321 318 315 314 312 309 306 306 305 301 294 293 290 287 278 257 228 212 209 215 223 234 239 213 185 185 184 190 204 197 188 201 217 223 219 212 207 200 187 180 175 172 167
322 318 316 315 314 314 309 306 307 307 307 307 305 302 299 285 244 204 200 205 210 221 227 200 179 185 194 196 186 194 204 216 214 220 221 214 196 191 186 175 171 164 158
321 317 317 316 314 312 310 309 309 318 315 307 313 315 319 314 322 264 214 203 197 199 190 183 189 188 199 201 196 192 202 211 219 221 215 205 194 189 185 173 167 163 168
319 319 317 316 316 314 313 313 307 297 292 282 282 294 311 328 289 128 144 154 159 164 186 198 203 207 209 208 205 204 204 208 208 208 209 201 193 187 182 174 167 169 170
317 316 313 315 316 316 317 316 311 293 271 276 277 281 288 322 21 174 171 160 157 158 210 218 213 216 219 220 217 215 211 208 204 205 200 195 189 183 177 173 171 171 171
318 315 315 316 316 315 315 315 314 312 300 232 207 243 247 238 223 186 160 170 189 202 226 226 220 223 229 226 221 221 217 207 199 198 195 189 187 181 177 178 175 172 170
318 318 321 317 313 314 316 321 327 330 331 334 153 153 188 182 188 208 203 228 225 212 218 218 220 227 234 230 222 218 216 203 191 188 191 188 184 177 177 179 174 169 169
318 318 318 318 317 323 330 332 337 340 344 2 32 121 166 202 211 195 212 229 235 234 235 226 218 224 229 224 215 213 212 200 192 193 191 188 182 177 178 176 172 170 171
321 319 320 324 325 334 336 334 342 355 1 13 45 64 348 274 261 222 209 220 233 241 244 237 225 228 224 212 209 215 213 202 194 189 186 182 180 178 175 173 169 168 164
318 318 325 327 327 338 336 334 345 355 6 10 12 123 291 284 283 270 246 232 227 229 235 231 220 216 215 210 209 214 205 197 187 179 179 177 175 172 169 168 164 162 160
321 325 328 332 334 334 329 342 349 360 10 7 356 339 268 281 293 289 280 271 265 253 250 234 215 201 194 195 201 217 208 189 182 181 176 169 166 165 164 162 161 158 158
323 330 334 339 343 343 341 347 353 359 357 359 6 343 335 327 318 319 311 312 307 261 219 221 191 168 155 130 114 185 166 141 155 163 164 158 156 155 155 156 156 157 158
332 337 340 342 344 348 349 354 357 359 0 354 360 9 359 340 326 328 318 314 62 108 116 123 116 121 118 112 103 88 81 84 99 122 137 142 145 147 149 151 153 154 155
336 340 342 343 344 347 352 354 356 4 4 355 357 360 348 328 318 311 5 75 100 102 106 99 104 101 100 90 91 89 85 87 91 103 127 133 137 141 144 147 150 150 153